Location: Asheville, NC
(35.6000°N, 82.5500°W)
Time: 02:23:48
(UTC-04:00)

BEESAT 3 - Pass Details

Date: 14 March 2018
Orbit: 499 x 517 km, 64.9° (Epoch: 20 June)

Event Time Altitude Azimuth Distance (km) Brightness Sun altitude
Rises 21:28:15 0° 262° (W) 2,623 ? -23.2°
Reaches altitude 10° 21:32:40 10° 309° (NW) 1,745 ? -24.1°
Maximum altitude 21:33:00 10° 314° (NW) 1,740 ? -24.2°
Drops below altitude 10° 21:33:21 10° 319° (NW) 1,747 ? -24.2°
Sets 21:37:49 0° 7° (N) 2,641 ? -25.1°
